Regional Weather Roundup
Issued by NWS

Home | Current Version | Previous Version | Text Only | Print | Product List | Glossary On
Versions: 1 2 3 4 5 6 7 8 9 10 11 12 13 14 15 16 17 18 19 20 21 22 23 24 25 26 27 28 29 30 31 32 33 34 35 36 37 38 39 40 41 42 43 44 45 46 47 48 49 50
000
ASUS43 KIND 040659
RWRIN

WEATHER ROUNDUP FOR INDIANA
NATIONAL WEATHER SERVICE INDIANAPOLIS IN
200 AM EST WED MAR 04 2015

NOTE: "FAIR" INDICATES FEW OR NO CLOUDS BELOW 12,000 FEET WITH NO
SIGNIFICANT WEATHER AND/OR OBSTRUCTIONS TO VISIBILITY.

* - STATION DOES NOT REPORT WEATHER SUCH AS PRECIPITATION OR FOG.

+ - STATION NOT QUALITY CONTROLLED BY THE NATIONAL WEATHER SERVICE.
    USE DATA WITH CAUTION...ESPECIALLY DEWPOINT AND RELATIVE
    HUMIDITY OBSERVATIONS.

INZ001>003-010>013-019-020-040800-
NORTHWEST INDIANA

CITY           SKY/WX    TMP DP  RH WIND       PRES   REMARKS
VALPARAISO     NOT AVBL

$$

LMZ046-743>745-040800-
SOUTHERN LAKE MICHIGAN

STATION/POSITION TIME  TEMP WIND        PRES
                       AIR  DIR/SP/G
                 (UTC) (F)  (DEG/KT/KT) (MB)
MICHIGAN CITY    0600   31  260/ 11/ 13   N/A

$$

INZ004-005-014>016-021>024-040800-
NORTH CENTRAL INDIANA

CITY           SKY/WX    TMP DP  RH WIND       PRES   REMARKS
GOSHEN         CLOUDY    31  25  78 W12       29.85R WCI  22
SOUTH BEND     CLOUDY    31  25  78 NW8       29.86S WCI  23

$$

INZ006>009-017-018-025>027-040800-
NORTHEAST INDIANA

CITY           SKY/WX    TMP DP  RH WIND       PRES   REMARKS
ANGOLA *+      CLOUDY    32  25  74 W6        29.83R WCI  26
FORT WAYNE     CLOUDY    33  30  88 W9        29.86R WCI  25

$$

INZ028-029-035-036-043>045-051>053-040800-
WEST CENTRAL INDIANA

CITY           SKY/WX    TMP DP  RH WIND       PRES   REMARKS
CRAWFORDSVL +  CLOUDY    32  26  77 NW8       29.90F WCI  25
GREENCASTLE +  CLOUDY    34  32  93 CALM      29.90F FOG
LAFAYETTE      CLOUDY    33  28  81 W7        29.90R WCI  27
TERRE HAUTE    CLOUDY    35  32  88 NW6       29.92F WCI  30

$$

INZ030>032-037>040-046>048-054>057-064-065-040800-
CENTRAL INDIANA

CITY           SKY/WX    TMP DP  RH WIND       PRES   REMARKS
GREENWOOD *+   CLOUDY    34  32  93 CALM      29.90R
INDIANAPOLIS   LGT RAIN  34  32  92 NW6       29.88R WCI  29
-EAGLE CREEK   CLOUDY    33  30  88 NW8       29.89R WCI  26
KOKOMO *+      CLOUDY    34  30  86 NW12      29.89  WCI  25
MT COMFORT *+  CLOUDY    34 N/A N/A NW5       29.89R WCI  30
SHELBYVILLE    RAIN      37  33  85 NW8       29.88R FOG

$$

INZ033-034-041-042-049-050-058-059-040800-
EAST CENTRAL INDIANA

CITY           SKY/WX    TMP DP  RH WIND       PRES   REMARKS
MUNCIE         CLOUDY    34  31  88 W8        29.89R WCI  27

$$

INZ060-061-067>069-081>083-085>088-040800-
SOUTHWEST INDIANA

CITY           SKY/WX    TMP DP  RH WIND       PRES   REMARKS
EVANSVILLE     RAIN      43  40  89 NW7       29.93R FOG
HUNTINGBURG *+ CLOUDY    41  37  87 N7        29.91S

$$

INZ062-063-066-070>080-084-089>092-040800-
SOUTH CENTRAL AND SOUTHEAST INDIANA

CITY           SKY/WX    TMP DP  RH WIND       PRES   REMARKS
BLOOMINGTON    RAIN      36  35  96 VRB5      29.89R FOG
SEYMOUR +      LGT RAIN  39  39 100 N5        29.87F

$$




USA.gov is the U.S. government's official web portal to all federal, state and local government web resources and services.